This demonstration page uses our WeatherBlox Daily Observations layout. Learn more.

38.89511, -77.03637

Hourly Observations for October 12, 2015

Temp ( °F °C ) Dew Point ( °F °C ) Humidity (%) Winds ( mph kmh ) Pressure ( in mb ) Visibility ( mi km ) Precip ( " mm )
12:52 am 00:52 Clear 56 13.3 51 10.6 84 84 Calm 29.91 1013 10 16.0934 0 0
1:52 am 01:52 Clear 53 11.7 51 10.6 93 93 SSW 6 9 29.91 1013 10 16.0934 0 0
2:52 am 02:52 Clear 53 11.7 50 10 89 89 SSW 5 7 29.91 1013 10 16.0934 0 0
3:52 am 03:52 Clear 52 11.1 50 10 93 93 SW 5 7 29.9 1013 10 16.0934 0 0
4:52 am 04:52 Clear 52 11.1 50 10 93 93 SW 3 6 29.89 1012 10 16.0934 0 0
5:52 am 05:52 Clear 52 11.1 50 10 93 93 Calm 29.9 1013 10 16.0934 0 0
6:52 am 06:52 Mostly Clear 52 11.1 50 10 93 93 Calm 29.91 1013 10 16.0934 0 0
7:52 am 07:52 Mostly Sunny 52 11.1 50 10 93 93 SSW 5 7 29.91 1013 10 16.0934 0 0
8:52 am 08:52 Mostly Sunny 55 12.8 53 11.7 93 93 SSW 3 6 29.9 1013 10 16.0934 0 0
9:52 am 09:52 Sunny 59 15 53 11.7 81 81 S 3 6 29.89 1012 10 16.0934 0 0
10:52 am 10:52 Sunny 62 16.7 53 11.7 73 73 SE 5 7 29.88 1012 10 16.0934 0 0
11:52 am 11:52 Sunny 67 19.4 55 12.8 66 66 SSE 7 11 29.87 1012 10 16.0934 0 0
12:52 pm 12:52 Sunny 71 21.7 54 12.2 55 55 S 9 15 29.85 1011 10 16.0934 0 0
1:52 pm 13:52 Mostly Sunny 72 22.2 53 11.7 52 52 SSE 6 9 29.81 1010 10 16.0934 0 0
2:52 pm 14:52 Mostly Sunny 74 23.3 49 9.4 41 41 S 8 13 29.79 1009 10 16.0934 0 0
3:52 pm 15:52 Mostly Sunny 74 23.3 51 10.6 45 45 S 10 17 29.77 1008 10 16.0934 0 0
4:52 pm 16:52 Mostly Sunny 73 22.8 53 11.7 50 50 S 13 20 29.75 1008 10 16.0934 0 0
5:52 pm 17:52 Mostly Sunny 71 21.7 54 12.2 55 55 S 7 11 29.74 1007 10 16.0934 0 0
6:52 pm 18:52 Mostly Clear 69 20.6 53 11.7 57 57 SSE 7 11 29.73 1007 10 16.0934 0 0
7:52 pm 19:52 Clear 66 18.9 54 12.2 65 65 S 5 7 29.74 1007 10 16.0934 0 0
8:52 pm 20:52 Clear 64 17.8 55 12.8 73 73 SSE 7 11 29.74 1007 10 16.0934 0 0
9:52 pm 21:52 Mostly Clear 62 16.7 55 12.8 78 78 SSW 7 11 29.72 1007 10 16.0934 0 0
10:52 pm 22:52 Mostly Clear 63 17.2 56 13.3 78 78 S 7 11 29.71 1006 10 16.0934 0 0
11:52 pm 23:52 Clear 62 16.7 56 13.3 80 80 S 6 9 29.69 1005 10 16.0934 0 0

Powered by AerisWeather